Theta_e
335 333 329 326 324 322 321 320 320 323 325 327 328 329 329 328 327 325 323 321 320 320 319 320 320 322 323 324 325 326 326 326 326 325 325 324 324 324 324 324 323 323 323 323 324 324 324 324 325 326 326 326
332 327 323 322 321 320 319 317 317 318 320 321 321 323 323 323 322 321 320 319 318 319 320 321 320 321 323 324 325 325 325 325 325 325 324 324 325 324 324 324 324 324 325 326 326 326 325 326 326 327 327 326
327 322 322 322 322 322 320 318 316 317 316 316 317 318 319 319 319 319 319 320 320 321 322 322 322 323 323 324 324 324 324 324 324 324 324 325 325 325 325 325 326 327 327 327 327 327 327 327 327 327 327 326
323 323 325 326 326 325 323 320 319 318 317 316 318 319 321 322 321 321 322 323 323 324 324 323 324 324 324 324 324 325 324 325 325 325 325 326 326 326 326 326 327 328 328 327 327 327 327 327 327 327 327 327
324 326 328 329 329 327 324 323 322 321 321 323 324 325 327 327 327 326 325 325 325 324 324 325 325 324 325 325 325 325 325 326 326 326 326 327 327 328 328 328 328 329 329 328 328 328 327 328 329 328 327 327
326 328 328 330 329 326 324 324 323 324 326 327 328 329 329 329 329 328 327 327 327 326 325 325 325 325 325 325 326 326 327 327 326 327 328 328 329 329 330 329 329 329 329 329 329 329 329 329 329 328 327 328
326 329 329 329 328 326 326 327 328 328 328 328 329 330 330 330 330 330 329 329 329 328 326 326 326 327 327 327 327 326 328 329 329 329 329 329 330 330 331 330 330 330 329 330 329 330 330 330 330 329 328 329
327 331 331 331 330 329 329 330 331 331 330 330 331 332 332 332 331 331 330 329 329 328 328 328 328 328 328 329 329 328 329 331 331 330 331 330 330 331 330 330 330 330 330 330 330 330 330 330 330 330 330 330
330 332 332 332 331 330 329 330 332 331 331 331 332 332 332 331 331 331 330 329 329 329 329 329 328 328 327 328 329 330 330 330 330 330 331 330 331 330 330 330 329 330 330 330 330 330 330 330 330 330 330 330
332 333 332 332 331 330 330 330 330 330 331 331 331 331 330 330 330 330 330 329 328 328 327 327 326 326 327 327 328 329 328 328 327 328 329 329 329 329 329 329 329 329 329 329 328 328 328 328 328 329 329 329
333 333 333 332 331 330 330 329 329 329 329 330 330 329 328 329 329 329 329 328 327 327 326 326 325 326 327 327 327 327 326 325 324 325 326 327 327 326 325 325 327 326 324 325 323 323 325 325 327 328 328 328
332 332 332 331 331 331 329 329 328 328 328 328 328 328 327 328 328 328 329 328 327 327 326 325 324 324 325 325 324 323 323 322 322 323 324 324 323 321 319 319 322 320 317 318 316 319 322 323 326 327 328 327
331 331 331 330 330 329 329 328 328 327 327 327 327 327 326 327 327 327 328 327 325 325 324 323 320 320 321 322 320 320 320 319 318 320 321 320 317 315 313 312 315 313 311 312 312 317 320 322 325 326 327 325
329 329 329 328 328 327 327 327 327 327 326 325 326 325 325 326 326 326 326 325 323 322 322 321 320 319 318 319 318 318 317 314 313 316 315 313 310 309 306 305 308 308 307 307 310 314 317 321 324 324 324 323
327 327 327 325 324 325 325 325 325 325 324 324 325 325 324 325 324 324 324 323 322 320 320 319 318 317 316 315 314 313 313 310 310 311 309 306 305 304 302 301 304 305 304 306 308 311 315 319 322 321 321 321
325 325 324 323 322 321 322 322 322 322 321 322 324 324 324 323 321 320 321 320 318 317 317 316 314 312 311 309 308 309 308 306 305 306 306 304 301 300 300 299 301 302 303 305 307 310 313 316 319 320 317 316
323 321 320 320 319 318 319 319 320 319 319 321 322 322 321 319 317 315 316 314 311 311 311 311 309 307 305 303 303 304 304 302 300 302 302 301 298 298 298 298 299 300 301 304 306 309 312 313 314 315 313 311
319 317 316 316 316 315 316 317 317 318 318 318 317 316 315 313 311 311 310 307 305 305 306 305 304 302 300 298 299 300 300 298 298 298 298 297 296 297 297 297 298 298 299 303 305 308 311 310 308 309 310 309
315 315 313 312 312 313 314 315 314 314 314 314 313 311 310 309 307 307 305 303 301 301 301 300 299 298 297 296 296 296 296 297 296 296 296 296 295 296 296 296 297 297 299 302 304 309 309 306 306 307 307 307
311 311 310 309 309 310 312 312 310 310 311 310 310 308 307 305 304 303 301 300 299 298 297 296 296 295 294 294 295 295 295 295 295 295 295 295 294 295 295 295 296 296 299 301 305 308 306 304 306 305 304 304
307 307 307 307 307 307 308 308 306 306 308 307 305 304 302 301 300 299 297 296 296 295 294 294 294 293 293 293 294 294 295 295 295 294 295 295 293 293 294 294 295 295 298 300 304 306 304 304 304 302 301 301
304 304 305 305 305 305 304 303 302 303 304 302 301 300 298 297 297 296 295 294 293 293 292 292 292 292 292 292 293 293 294 294 294 294 294 294 294 292 292 293 294 294 297 299 303 305 303 303 302 299 299 299
301 301 301 301 302 302 300 299 299 301 300 298 297 296 295 294 294 294 293 292 291 291 291 292 292 291 291 292 292 292 292 293 293 294 293 294 293 291 291 292 292 293 295 298 302 304 302 302 301 298 298 298
298 297 296 296 297 297 296 296 296 298 297 295 294 293 292 292 292 292 291 291 291 291 291 291 291 291 291 291 291 291 292 292 293 294 294 294 293 292 290 291 292 293 294 297 301 303 301 300 301 298 297 297
296 295 294 293 293 292 291 292 294 294 293 292 291 290 291 291 290 291 290 290 290 290 290 290 291 291 290 290 290 291 290 290 291 293 294 295 295 293 291 290 291 292 294 295 299 302 300 299 299 298 296 296
294 293 292 291 290 289 289 289 290 290 289 289 289 289 290 289 289 290 289 290 290 290 290 290 290 290 289 289 289 289 289 290 290 291 293 294 295 293 291 290 289 290 293 294 295 296 298 299 299 298 296 295
292 291 291 290 288 288 288 288 287 288 288 288 288 288 288 288 288 288 289 289 290 290 289 289 289 289 289 288 288 288 288 289 289 289 291 292 293 293 291 290 289 289 290 292 293 294 298 299 299 300 296 293
291 290 290 289 288 288 287 286 286 287 287 287 287 287 287 287 287 287 288 289 289 289 288 288 288 288 288 287 287 287 287 288 288 288 289 289 291 291 290 290 289 289 289 290 292 294 297 297 297 299 295 291
289 289 289 289 288 288 287 287 286 286 286 286 286 286 286 285 286 286 287 287 288 288 287 287 287 286 287 286 286 286 286 286 287 287 288 288 289 289 289 289 289 289 289 289 291 292 294 296 296 296 292 292
289 289 289 289 288 288 287 287 286 286 285 285 285 285 285 284 285 285 286 286 286 286 286 286 285 285 285 285 285 285 285 285 285 286 287 287 287 288 288 288 288 288 288 288 290 290 291 293 293 292 291 292
290 289 289 289 288 287 286 286 285 285 284 284 284 284 284 284 284 284 284 285 285 285 285 284 284 284 284 284 284 284 284 284 284 285 285 286 286 286 286 287 287 287 287 287 288 289 289 289 290 291 291 291
Wind_Speed
17 17 16 15 14 13 12 12 11 12 12 12 11 12 11 11 10 9 8 7 6 6 5 5 5 6 6 6 7 7 7 7 7 6 7 8 9 8 7 8 9 9 9 9 10 10 9 9 8 9 10 10
17 16 15 14 13 12 11 11 11 11 11 10 11 11 10 9 9 8 7 7 7 7 7 8 8 9 9 8 8 9 9 9 8 8 8 7 8 8 9 9 9 9 10 12 12 11 9 9 9 9 11 10
16 15 14 13 12 11 11 11 10 11 10 10 10 10 10 10 9 9 10 10 10 10 11 11 11 11 10 10 10 9 9 8 7 7 6 6 5 7 7 6 8 9 10 12 13 12 10 10 10 10 11 11
15 14 13 12 11 11 11 11 11 11 12 13 14 14 14 13 13 13 14 14 12 12 12 12 11 11 9 8 8 7 6 5 5 5 4 5 5 5 5 5 7 9 10 11 12 11 11 10 10 11 10 9
15 14 12 11 10 10 11 11 12 13 15 17 17 16 15 14 13 13 14 13 11 11 10 10 9 9 7 6 5 4 4 4 4 4 6 6 7 7 7 7 7 9 9 10 11 11 11 10 9 10 8 7
16 14 12 11 10 11 12 12 13 16 16 15 14 13 11 10 9 10 11 10 8 8 8 7 6 5 4 3 3 3 4 4 5 5 7 7 8 8 8 9 9 9 9 9 10 10 10 10 10 9 7 7
16 14 12 11 11 12 13 13 13 14 13 12 11 9 6 6 9 11 10 8 7 5 5 5 2 3 2 2 1 2 4 5 6 6 7 8 8 9 9 10 9 9 9 9 9 10 10 10 10 9 8 8
16 14 14 13 13 14 13 13 13 13 12 11 9 7 6 7 9 9 7 6 5 4 4 5 5 4 5 6 2 2 5 6 7 8 8 8 8 9 9 9 9 8 8 9 9 10 10 9 9 8 8 8
17 16 16 18 17 16 14 12 13 12 11 10 7 8 8 8 8 7 7 6 5 7 9 9 8 5 6 8 5 4 6 7 9 9 7 6 6 7 7 8 10 10 10 11 10 11 9 9 10 8 9 9
18 16 17 18 16 16 14 12 11 11 10 9 8 10 12 11 9 7 8 8 8 9 9 8 7 4 5 5 5 4 5 8 9 9 7 7 8 8 9 9 9 10 11 10 10 10 9 10 11 10 11 10
18 16 16 17 15 14 12 11 11 10 9 8 9 11 12 10 7 6 8 9 8 8 7 6 4 3 3 3 5 6 7 9 9 8 9 11 12 11 11 9 8 11 10 9 10 8 8 10 10 9 11 11
17 15 15 15 14 12 11 10 10 10 9 8 9 10 11 10 9 9 8 8 8 8 8 7 6 7 6 7 9 10 10 10 8 7 9 10 10 10 9 7 7 10 9 9 9 6 8 12 11 9 10 12
16 15 15 14 13 13 12 11 10 10 10 10 11 11 12 11 11 11 9 9 10 10 9 9 10 10 10 10 11 11 11 10 9 8 9 9 8 8 8 7 6 9 10 9 9 8 10 12 12 10 9 12
16 16 16 14 14 14 13 13 13 13 13 13 13 12 13 13 13 13 11 11 11 10 9 9 10 11 11 10 10 11 11 10 9 9 11 11 10 9 9 8 8 10 10 9 10 11 12 12 12 12 9 12
19 19 18 17 17 17 16 16 16 16 16 17 15 14 14 14 15 13 12 10 9 10 10 10 10 10 10 10 10 11 11 10 9 10 12 12 10 9 9 8 9 10 10 9 11 12 13 12 12 12 12 14
21 20 20 20 19 18 17 17 17 17 17 17 16 15 14 14 14 13 12 11 11 11 11 11 11 11 11 11 11 11 11 10 10 10 11 10 8 8 8 9 9 10 9 10 12 13 13 12 10 10 13 15
22 21 20 20 19 19 18 18 18 17 17 16 16 15 14 14 15 15 14 14 13 13 13 12 12 12 12 12 11 11 10 10 11 10 10 10 9 9 9 10 10 10 10 11 12 13 14 13 10 10 15 16
22 21 21 20 20 19 19 19 19 18 18 16 16 16 16 16 17 17 16 15 15 14 13 13 13 13 13 12 11 10 11 11 11 12 12 11 11 11 12 12 11 11 10 11 12 13 14 13 10 12 15 15
21 21 21 21 21 20 20 20 20 20 19 18 17 17 18 17 17 17 16 15 15 15 14 14 14 14 13 12 11 11 11 11 12 13 13 13 14 13 14 14 13 12 11 12 13 14 15 12 10 13 14 13
21 21 21 22 22 21 22 22 22 21 20 19 19 18 18 18 17 17 16 15 15 15 15 15 15 14 13 12 12 12 12 12 13 14 15 15 17 16 16 15 14 13 12 12 14 14 14 10 10 13 14 13
21 20 20 21 22 23 24 23 23 22 21 21 20 19 19 18 18 17 16 15 15 16 16 16 16 15 14 13 13 13 12 13 14 15 16 16 18 19 18 17 15 14 12 12 13 14 12 9 10 13 14 13
20 20 21 21 22 23 24 24 24 23 22 21 20 20 19 18 18 18 17 16 16 16 17 17 16 16 15 14 14 14 14 14 15 16 17 17 17 19 20 18 17 14 12 11 11 12 11 8 12 14 13 12
22 22 21 22 22 23 24 24 24 24 22 21 21 20 19 19 18 18 18 17 17 17 17 17 17 17 16 16 16 16 16 16 15 16 18 18 17 19 21 20 18 14 11 10 9 11 11 9 12 14 13 12
24 24 23 23 23 23 23 24 24 24 23 22 21 20 19 19 19 19 19 19 18 18 18 17 17 18 17 17 16 17 18 18 17 16 16 17 17 18 19 20 18 14 11 10 10 12 13 9 10 14 15 15
25 25 23 22 23 23 23 24 24 24 23 23 22 21 20 19 19 19 19 20 19 19 18 17 17 18 18 18 17 18 19 19 18 17 15 15 16 18 20 22 22 17 12 11 10 10 12 11 11 13 16 17
23 23 22 22 22 23 24 24 25 26 25 23 23 22 21 20 19 19 19 19 19 19 18 17 17 18 18 18 18 18 18 18 18 18 17 16 16 17 19 22 25 23 16 12 8 4 4 7 8 7 13 18
21 22 23 22 23 25 26 25 25 26 25 24 23 23 22 21 19 19 20 19 18 18 18 17 17 18 18 18 18 18 18 18 19 20 20 19 17 16 17 18 23 26 23 18 9 3 2 2 1 1 8 14
22 24 26 25 25 26 27 25 26 27 26 24 24 23 22 20 19 19 19 19 18 18 18 17 18 17 17 17 17 18 19 19 20 20 20 20 18 17 18 17 19 22 24 25 16 5 2 3 4 2 8 15
25 26 27 26 25 25 24 24 24 26 25 23 23 23 22 20 19 19 19 18 18 17 17 18 18 17 17 17 17 18 19 20 20 20 20 20 19 18 18 16 17 18 20 24 22 14 5 3 4 1 9 13
23 22 22 21 20 19 20 22 22 22 23 22 22 21 21 19 18 19 19 18 18 17 17 17 18 18 18 18 18 19 20 20 20 20 19 20 19 18 17 16 18 19 17 18 21 19 13 8 5 2 8 6
21 18 18 20 21 20 20 21 20 20 21 22 21 20 20 19 18 18 18 18 18 17 17 17 18 18 18 19 19 19 20 21 20 19 18 18 18 18 17 17 19 19 16 16 17 17 14 11 9 5 7 4
Wind_Direction
137 137 136 136 135 134 135 135 138 138 136 134 134 137 136 135 136 133 126 120 110 95 87 83 79 82 79 74 70 67 63 62 60 54 56 55 55 53 49 49 46 42 37 37 28 24 30 37 47 51 54 54
140 141 140 138 134 131 129 131 137 139 138 138 141 144 141 138 136 132 128 121 111 103 99 91 88 91 88 84 76 73 71 67 67 66 68 65 62 61 60 58 50 47 44 41 35 35 43 44 47 51 50 41
143 144 138 133 128 126 123 123 127 128 128 128 132 134 131 128 124 120 117 112 110 105 99 95 95 96 93 90 87 84 81 78 77 75 72 59 56 59 58 54 45 44 41 36 31 34 40 40 42 45 41 30
147 142 133 127 120 119 119 117 119 120 118 116 114 112 107 103 104 107 108 106 103 100 96 97 97 98 98 94 96 91 82 78 75 69 55 36 32 35 38 47 44 40 36 32 30 33 37 37 43 40 34 30
147 139 131 122 109 108 115 115 115 115 111 109 107 105 101 95 96 96 101 99 93 99 101 101 101 102 103 101 100 87 66 52 51 38 24 24 30 33 38 47 47 37 31 29 31 38 39 34 39 35 30 35
149 141 137 125 113 113 118 115 111 112 111 111 111 110 101 94 102 104 109 108 103 113 114 111 111 106 103 103 95 62 43 33 33 26 24 35 38 41 43 43 43 33 24 26 29 35 36 30 36 39 36 40
151 145 146 130 117 122 127 125 124 127 128 133 133 129 117 116 134 136 138 137 133 137 131 129 108 78 47 6 12 20 35 45 40 30 35 45 43 41 36 35 39 30 21 25 27 31 34 30 35 45 48 47
154 155 157 143 132 138 148 147 146 147 146 149 149 144 135 134 141 144 146 147 156 141 99 87 51 35 20 14 42 47 37 52 44 40 46 46 43 37 35 38 37 31 29 31 32 30 34 38 33 42 47 47
162 165 157 153 151 154 162 161 158 156 150 145 139 130 115 112 121 128 127 119 125 101 73 69 58 44 41 43 79 83 51 58 48 41 43 45 48 43 43 43 34 33 33 32 32 26 32 45 36 43 55 57
166 165 156 157 160 161 163 164 167 164 155 145 130 120 107 109 116 122 129 114 104 101 93 95 86 70 65 54 79 90 71 72 56 38 29 39 52 54 43 37 40 38 30 27 27 24 38 49 37 44 57 60
162 162 161 164 166 167 167 165 168 165 160 152 138 126 115 122 127 121 134 130 119 118 118 115 106 86 73 61 75 80 77 74 64 52 49 47 46 47 33 24 46 41 29 30 25 26 46 50 46 50 60 61
158 159 161 165 168 169 170 168 168 164 162 156 150 142 128 129 131 125 132 134 127 124 118 105 96 89 85 91 89 86 85 78 70 72 76 65 46 41 29 19 45 42 34 30 20 34 51 51 56 57 66 68
156 157 157 162 165 164 165 167 167 163 162 158 159 151 135 132 131 131 135 129 122 120 115 107 101 94 91 93 90 87 86 76 68 73 78 71 56 48 37 27 47 50 39 28 25 48 55 55 59 58 74 75
152 154 153 155 157 157 159 158 155 154 152 152 155 145 132 133 131 130 133 128 124 123 121 119 113 103 97 92 89 86 80 71 65 72 70 59 54 53 41 36 59 58 41 35 40 52 55 57 61 64 84 78
147 149 149 147 147 146 148 149 146 145 143 143 144 137 131 133 130 129 133 133 132 130 126 124 116 106 100 93 89 85 81 76 69 77 74 58 50 50 45 47 65 61 46 48 52 56 57 56 61 68 87 77
148 146 146 145 142 140 143 145 143 139 136 136 136 136 139 138 132 131 134 133 128 124 121 119 112 103 97 89 87 88 89 87 80 83 83 74 64 59 58 59 67 64 56 59 62 64 60 54 56 70 83 71
150 147 146 146 144 142 145 144 142 137 133 135 138 139 144 140 130 128 128 124 118 116 117 116 111 104 94 86 88 95 98 94 87 84 84 83 73 66 63 62 67 66 64 67 68 69 62 56 58 78 82 66
152 150 148 148 148 146 148 145 141 138 134 135 136 136 137 132 125 124 123 119 114 114 115 114 110 104 95 90 91 97 101 95 87 79 75 72 64 62 57 54 56 56 66 69 71 74 64 58 64 82 80 62
151 152 151 149 148 148 147 143 138 134 131 132 132 130 127 124 121 121 120 118 116 114 114 112 108 101 96 96 94 96 96 90 85 76 70 66 58 55 53 53 51 51 64 69 75 76 60 57 72 83 78 62
147 149 149 147 145 144 142 138 132 129 129 130 130 126 123 120 118 117 116 116 116 113 110 107 103 100 98 98 94 93 91 87 83 74 68 62 53 48 48 49 49 54 65 73 81 74 57 66 85 85 81 68
143 144 145 145 143 139 136 132 127 126 129 129 125 123 119 117 117 115 112 112 113 109 104 102 100 98 95 92 91 89 86 84 80 73 67 61 52 44 43 45 45 51 63 75 84 72 63 84 91 84 82 74
137 139 139 139 138 135 131 127 125 126 127 124 122 120 116 115 115 114 112 108 107 105 101 99 97 93 90 87 86 83 82 81 78 76 68 60 53 44 41 42 40 42 55 74 84 76 78 97 88 80 82 78
133 132 130 129 131 129 124 122 122 125 124 119 119 117 114 114 113 112 110 105 103 102 99 99 95 90 87 84 83 80 78 76 74 76 69 60 53 47 44 41 38 38 48 72 91 88 94 107 88 77 76 73
131 126 121 120 120 119 116 117 119 120 120 116 114 114 113 111 110 110 108 104 102 99 98 97 94 90 85 81 79 77 73 69 67 68 68 61 48 45 47 43 40 40 47 76 103 102 104 112 93 79 74 66
128 124 121 117 115 112 110 114 116 115 114 112 110 111 112 107 106 108 106 104 102 98 96 94 93 91 85 80 76 75 71 68 67 66 70 68 53 43 42 41 37 35 48 71 82 94 107 114 102 85 75 66
129 127 125 120 116 113 109 110 111 110 109 109 108 108 109 103 101 104 102 102 103 99 96 91 91 88 85 81 76 77 75 72 71 66 66 67 62 48 41 40 35 34 42 42 32 28 83 114 115 92 73 67
128 129 128 121 116 113 109 105 105 107 107 108 107 104 105 101 97 100 100 102 103 101 97 91 89 86 84 81 76 76 73 72 69 65 62 60 63 58 45 43 37 36 39 32 24 2 8 64 106 100 45 44
121 123 123 118 113 109 106 102 103 105 103 104 104 101 101 97 94 97 99 101 101 102 99 93 90 86 84 82 78 75 70 68 66 63 62 56 59 58 48 46 39 37 40 39 41 33 307 330 5 81 356 350
118 118 117 114 110 107 104 100 99 99 96 96 98 96 95 91 90 95 97 98 98 99 97 93 91 87 84 83 80 78 71 68 66 65 65 58 56 58 54 52 46 43 42 44 47 41 40 15 20 104 341 336
120 120 120 117 113 110 106 98 92 92 93 93 93 93 94 90 88 92 93 95 94 94 94 92 92 87 85 83 79 79 75 71 68 65 67 62 58 60 63 63 54 48 42 48 54 49 55 58 48 359 344 351
124 120 124 125 120 112 104 97 94 97 98 98 97 95 96 93 88 87 88 90 90 91 91 91 91 88 86 83 79 78 74 72 69 65 68 69 65 62 65 66 58 48 42 47 52 50 53 52 48 37 13 32